sat.trackr.live / text

‹ back to catalog

STARLINK-31621

NORAD 59465 · 2024-068L

PAYLOAD ACTIVE UNKNOWN

§ Identity

Operator
Country
US
Launch date
2024-04-10
Launch site
AFETR
Launch vehicle
Mass (kg)
RCS (m²)

Purposes: comms

External: N2YO · Heavens-Above · Gunter

§ Orbital elements

Epoch: 2026-09-21T08:10:03.165888Z

Period
94.27 min
Inclination
43.0077°
Eccentricity
0.0001380
Mean motion
15.27555582 rev/d
Perigee alt
482.2 km
Apogee alt
484.1 km
Semi-major
6,861.3 km
B*
1.6060e-4
RAAN
9.7130°
Arg perigee
269.9491°
Mean anomaly
90.1203°
Rev number
13,844

§ Raw data

STARLINK-316211 59465U 24068L   26264.34031442  .00004156  00000+0  16060-3 0  99912 59465  43.0077   9.7130 0001380 269.9491  90.1203 15.27555582138444

JSON: /api/v1/satellites/59465 · /tle

For live sub-satellite position, see the globe view (requires WebGL).

§ Visibility from observer

Set your observer location to see the next 7 days of passes ≥ 10°. The values pass through the URL so the page stays shareable.

No JS? Fill the form by hand. The geolocation button needs JavaScript.